QPF
0.00 0.00 0.00 0.00 0.00 0.00 0.00 0.00 0.00 0.00 0.00 0.00 0.00 0.00 0.00 0.00 0.00 0.00 0.00 0.00 0.00 0.00 0.00 0.00 0.00 0.00 0.00 0.00 0.00 0.00 0.00 0.00 0.00 0.00 0.00 0.00 0.00 0.00 0.00 0.00 0.00 0.00 0.00 0.00
0.00 0.00 0.00 0.00 0.00 0.00 0.00 0.00 0.00 0.00 0.00 0.00 0.00 0.00 0.00 0.00 0.00 0.00 0.00 0.00 0.00 0.00 0.00 0.00 0.00 0.00 0.00 0.00 0.00 0.00 0.00 0.00 0.00 0.00 0.00 0.00 0.00 0.00 0.00 0.00 0.00 0.00 0.00 0.00
0.00 0.00 0.00 0.00 0.00 0.00 0.00 0.00 0.00 0.00 0.00 0.00 0.00 0.00 0.00 0.00 0.00 0.00 0.00 0.00 0.00 0.00 0.00 0.00 0.00 0.00 0.00 0.00 0.00 0.00 0.00 0.00 0.00 0.00 0.00 0.00 0.00 0.00 0.00 0.00 0.00 0.00 0.00 0.00
0.00 0.00 0.00 0.00 0.00 0.00 0.00 0.00 0.00 0.00 0.00 0.00 0.00 0.00 0.00 0.00 0.00 0.00 0.00 0.00 0.00 0.00 0.00 0.00 0.00 0.00 0.00 0.00 0.00 0.00 0.00 0.00 0.00 0.00 0.00 0.00 0.00 0.00 0.00 0.00 0.00 0.00 0.00 0.00
0.00 0.00 0.00 0.00 0.00 0.00 0.00 0.00 0.00 0.00 0.00 0.00 0.00 0.00 0.00 0.00 0.00 0.00 0.00 0.00 0.00 0.00 0.00 0.00 0.00 0.00 0.00 0.00 0.00 0.00 0.00 0.00 0.00 0.00 0.00 0.00 0.00 0.00 0.00 0.00 0.00 0.00 0.00 0.00
0.00 0.00 0.00 0.00 0.00 0.00 0.00 0.00 0.00 0.00 0.00 0.00 0.00 0.00 0.00 0.00 0.00 0.00 0.00 0.00 0.00 0.00 0.00 0.00 0.00 0.00 0.00 0.00 0.00 0.00 0.00 0.00 0.00 0.00 0.00 0.00 0.00 0.00 0.00 0.00 0.00 0.00 0.00 0.00
0.00 0.00 0.00 0.00 0.00 0.00 0.00 0.00 0.00 0.00 0.00 0.00 0.00 0.00 0.00 0.00 0.00 0.00 0.00 0.00 0.00 0.00 0.00 0.00 0.00 0.00 0.00 0.00 0.00 0.00 0.00 0.00 0.00 0.00 0.00 0.00 0.00 0.00 0.00 0.00 0.00 0.00 0.00 0.00
0.00 0.00 0.00 0.00 0.00 0.00 0.00 0.00 0.00 0.00 0.00 0.00 0.00 0.00 0.00 0.00 0.00 0.00 0.00 0.00 0.00 0.00 0.00 0.00 0.00 0.00 0.00 0.00 0.00 0.00 0.00 0.00 0.00 0.00 0.00 0.00 0.00 0.00 0.00 0.00 0.00 0.00 0.00 0.00
0.00 0.00 0.00 0.00 0.00 0.00 0.00 0.00 0.00 0.00 0.00 0.00 0.00 0.00 0.00 0.00 0.00 0.00 0.00 0.00 0.00 0.00 0.00 0.00 0.00 0.00 0.00 0.00 0.00 0.00 0.00 0.00 0.00 0.00 0.00 0.00 0.00 0.00 0.00 0.00 0.00 0.00 0.00 0.00
0.00 0.00 0.00 0.00 0.00 0.00 0.00 0.00 0.00 0.00 0.00 0.00 0.00 0.00 0.00 0.00 0.00 0.00 0.00 0.00 0.00 0.00 0.00 0.00 0.00 0.00 0.00 0.00 0.00 0.00 0.00 0.00 0.00 0.00 0.00 0.00 0.00 0.00 0.00 0.00 0.00 0.00 0.00 0.00
0.00 0.00 0.00 0.00 0.00 0.00 0.00 0.00 0.00 0.00 0.00 0.00 0.00 0.00 0.00 0.00 0.00 0.00 0.00 0.00 0.00 0.00 0.00 0.00 0.00 0.00 0.00 0.00 0.00 0.00 0.00 0.00 0.00 0.00 0.00 0.00 0.00 0.00 0.00 0.00 0.00 0.00 0.00 0.00
0.00 0.00 0.00 0.00 0.00 0.00 0.00 0.00 0.00 0.00 0.00 0.00 0.00 0.00 0.00 0.00 0.00 0.00 0.00 0.00 0.00 0.00 0.00 0.00 0.00 0.00 0.00 0.00 0.00 0.00 0.00 0.00 0.00 0.00 0.00 0.00 0.00 0.00 0.00 0.00 0.00 0.00 0.00 0.00
0.00 0.00 0.00 0.00 0.00 0.00 0.00 0.00 0.00 0.00 0.00 0.00 0.00 0.00 0.00 0.00 0.00 0.00 0.00 0.00 0.00 0.00 0.00 0.00 0.00 0.00 0.00 0.00 0.00 0.00 0.00 0.00 0.00 0.00 0.00 0.00 0.00 0.00 0.00 0.00 0.00 0.00 0.00 0.00
0.00 0.00 0.00 0.00 0.00 0.00 0.00 0.00 0.00 0.00 0.00 0.00 0.00 0.00 0.00 0.00 0.00 0.00 0.00 0.00 0.00 0.00 0.00 0.00 0.00 0.00 0.00 0.00 0.00 0.00 0.00 0.00 0.00 0.00 0.00 0.00 0.00 0.00 0.00 0.00 0.00 0.00 0.00 0.00
0.00 0.00 0.00 0.00 0.00 0.00 0.00 0.00 0.00 0.00 0.00 0.00 0.00 0.00 0.00 0.00 0.00 0.00 0.00 0.00 0.00 0.00 0.00 0.00 0.00 0.00 0.00 0.00 0.00 0.00 0.00 0.00 0.00 0.00 0.00 0.00 0.00 0.00 0.00 0.00 0.00 0.00 0.00 0.00
0.00 0.00 0.00 0.00 0.00 0.00 0.00 0.00 0.00 0.00 0.00 0.00 0.00 0.00 0.00 0.00 0.00 0.00 0.00 0.00 0.00 0.00 0.00 0.00 0.00 0.00 0.00 0.00 0.00 0.00 0.00 0.00 0.00 0.00 0.00 0.00 0.00 0.00 0.00 0.00 0.00 0.00 0.00 0.00
0.00 0.00 0.00 0.00 0.00 0.00 0.00 0.00 0.00 0.00 0.00 0.00 0.00 0.00 0.00 0.00 0.00 0.00 0.00 0.00 0.00 0.00 0.00 0.00 0.00 0.00 0.00 0.00 0.00 0.00 0.00 0.00 0.00 0.00 0.00 0.00 0.00 0.00 0.00 0.00 0.00 0.00 0.00 0.00
0.00 0.00 0.00 0.00 0.00 0.00 0.00 0.00 0.00 0.00 0.00 0.00 0.00 0.00 0.00 0.00 0.00 0.00 0.00 0.00 0.00 0.00 0.00 0.00 0.00 0.00 0.00 0.00 0.00 0.00 0.00 0.00 0.00 0.00 0.00 0.00 0.00 0.00 0.00 0.00 0.00 0.00 0.00 0.00
0.00 0.00 0.00 0.00 0.00 0.00 0.00 0.00 0.00 0.00 0.00 0.00 0.00 0.00 0.00 0.00 0.00 0.00 0.00 0.00 0.00 0.00 0.00 0.00 0.00 0.00 0.00 0.00 0.00 0.00 0.00 0.00 0.00 0.00 0.00 0.00 0.00 0.00 0.00 0.00 0.00 0.00 0.00 0.00
0.00 0.00 0.00 0.00 0.00 0.00 0.00 0.00 0.00 0.00 0.00 0.00 0.00 0.00 0.00 0.00 0.00 0.00 0.00 0.00 0.00 0.00 0.00 0.00 0.00 0.00 0.00 0.00 0.00 0.00 0.00 0.00 0.00 0.00 0.00 0.00 0.00 0.00 0.00 0.00 0.00 0.00 0.00 0.00
0.00 0.00 0.00 0.00 0.00 0.00 0.00 0.00 0.00 0.00 0.00 0.00 0.00 0.00 0.00 0.00 0.00 0.00 0.00 0.00 0.00 0.00 0.00 0.00 0.00 0.00 0.00 0.00 0.00 0.00 0.00 0.00 0.00 0.00 0.00 0.00 0.00 0.00 0.00 0.00 0.00 0.00 0.00 0.00
0.00 0.00 0.00 0.00 0.00 0.00 0.00 0.00 0.00 0.00 0.00 0.00 0.00 0.00 0.00 0.00 0.00 0.00 0.00 0.00 0.00 0.00 0.00 0.00 0.00 0.00 0.00 0.00 0.00 0.00 0.00 0.00 0.00 0.00 0.00 0.00 0.00 0.00 0.00 0.00 0.00 0.00 0.00 0.00
0.00 0.00 0.00 0.00 0.00 0.00 0.00 0.00 0.00 0.00 0.00 0.00 0.00 0.00 0.00 0.00 0.00 0.00 0.00 0.00 0.00 0.00 0.00 0.00 0.00 0.00 0.00 0.00 0.00 0.00 0.00 0.00 0.00 0.00 0.00 0.00 0.00 0.00 0.00 0.00 0.00 0.00 0.00 0.00
0.00 0.00 0.00 0.00 0.00 0.00 0.00 0.00 0.00 0.00 0.00 0.00 0.00 0.00 0.00 0.00 0.00 0.00 0.00 0.00 0.00 0.00 0.00 0.00 0.00 0.00 0.00 0.00 0.00 0.00 0.00 0.00 0.00 0.00 0.00 0.00 0.00 0.00 0.00 0.00 0.00 0.00 0.00 0.00
0.00 0.00 0.00 0.00 0.00 0.00 0.00 0.00 0.00 0.00 0.00 0.00 0.00 0.00 0.00 0.00 0.00 0.00 0.00 0.00 0.00 0.00 0.00 0.00 0.00 0.00 0.00 0.00 0.00 0.00 0.00 0.00 0.00 0.00 0.00 0.00 0.00 0.00 0.00 0.00 0.00 0.00 0.00 0.00
0.00 0.00 0.00 0.00 0.00 0.00 0.00 0.00 0.00 0.00 0.00 0.00 0.00 0.00 0.00 0.00 0.00 0.00 0.00 0.00 0.00 0.00 0.00 0.00 0.00 0.00 0.00 0.00 0.00 0.00 0.00 0.00 0.00 0.00 0.00 0.00 0.00 0.00 0.00 0.00 0.00 0.00 0.00 0.00
MSLP
1015.81 1016.35 1016.48 1016.20 1015.96 1015.47 1015.22 1014.86 1014.33 1013.45 1012.90 1013.07 1013.22 1013.18 1013.30 1013.32 1013.48 1013.32 1013.35 1013.86 1014.70 1015.05 1015.44 1015.81 1016.00 1016.48 1017.47 1017.97 1018.79 1019.35 1019.99 1020.39 1020.65 1021.08 1021.55 1021.88 1022.11 1022.24 1022.53 1022.44 1022.56 1022.74 1022.78 1022.78
1016.34 1016.36 1015.94 1015.89 1015.63 1015.24 1014.98 1014.66 1014.25 1013.46 1012.90 1013.03 1013.33 1013.36 1013.15 1013.40 1012.89 1012.93 1012.07 1013.57 1014.30 1014.77 1015.38 1015.60 1016.24 1016.14 1017.27 1018.04 1018.60 1019.27 1019.81 1020.28 1020.65 1020.94 1021.34 1021.51 1021.83 1022.17 1022.34 1022.52 1022.64 1022.75 1022.87 1022.95
1016.33 1015.95 1015.32 1015.39 1015.07 1014.83 1014.67 1014.57 1014.32 1013.90 1013.40 1013.54 1013.62 1013.92 1013.52 1012.97 1012.71 1012.44 1012.34 1012.17 1012.37 1013.91 1015.15 1015.35 1015.93 1016.18 1017.00 1017.97 1018.60 1019.11 1019.59 1020.12 1020.59 1020.99 1021.38 1021.62 1021.83 1022.22 1022.58 1022.71 1022.79 1022.83 1022.96 1023.11
1016.15 1015.57 1015.45 1015.22 1015.08 1015.06 1014.82 1014.61 1014.27 1013.94 1014.28 1014.51 1014.22 1014.54 1013.70 1013.01 1012.68 1012.28 1011.95 1012.26 1012.92 1013.87 1014.84 1015.73 1016.08 1016.49 1017.20 1017.87 1018.47 1018.97 1019.51 1020.08 1020.60 1020.94 1021.23 1021.57 1021.84 1022.23 1022.37 1022.48 1022.79 1022.97 1023.01 1023.16
1016.55 1016.09 1015.73 1015.39 1015.33 1015.15 1014.97 1014.72 1014.67 1014.51 1015.13 1015.17 1015.17 1015.16 1013.48 1012.82 1012.84 1012.51 1012.24 1012.52 1013.00 1013.67 1014.31 1015.36 1015.91 1016.56 1017.25 1017.94 1018.55 1019.11 1019.67 1020.17 1020.54 1020.84 1021.16 1021.56 1021.92 1022.03 1022.24 1022.61 1022.92 1023.08 1023.14 1023.17
1016.39 1016.19 1016.07 1015.71 1015.36 1015.18 1015.01 1014.93 1015.20 1015.64 1016.21 1016.59 1015.97 1015.65 1014.21 1013.17 1012.32 1012.18 1012.26 1012.79 1013.34 1014.00 1014.84 1015.59 1016.36 1017.03 1017.86 1018.23 1018.80 1019.44 1019.91 1020.36 1020.58 1020.87 1021.17 1021.43 1021.82 1022.22 1022.61 1022.89 1023.12 1023.19 1023.24 1023.31
1016.71 1016.50 1016.20 1016.01 1015.69 1015.35 1015.39 1016.15 1017.03 1017.72 1017.91 1017.57 1016.67 1016.31 1014.13 1013.09 1012.65 1012.04 1012.23 1013.23 1013.87 1014.37 1015.18 1016.23 1017.06 1017.79 1018.34 1018.61 1019.17 1019.70 1020.10 1020.61 1020.74 1020.98 1021.26 1021.47 1021.78 1022.15 1022.54 1022.76 1022.95 1023.17 1023.30 1023.37
1017.33 1016.93 1016.46 1016.15 1016.08 1015.99 1016.06 1016.71 1017.68 1018.24 1018.44 1017.90 1017.04 1016.00 1014.08 1013.68 1013.50 1012.91 1013.27 1014.12 1014.86 1015.59 1016.12 1016.76 1017.38 1018.01 1018.36 1018.90 1019.43 1019.89 1020.34 1020.73 1020.93 1021.19 1021.42 1021.62 1021.87 1022.16 1022.40 1022.60 1022.83 1023.06 1023.22 1023.27
1017.39 1016.99 1016.72 1016.48 1016.39 1016.60 1016.34 1016.70 1016.98 1017.75 1018.00 1018.04 1016.72 1015.46 1014.38 1014.26 1014.52 1014.61 1014.83 1015.31 1016.02 1016.56 1016.95 1017.50 1017.93 1018.17 1018.65 1019.14 1019.61 1020.02 1020.46 1020.81 1021.03 1021.26 1021.51 1021.79 1022.03 1022.25 1022.47 1022.69 1022.89 1023.09 1023.15 1023.05
1017.21 1017.39 1017.12 1017.01 1016.76 1016.69 1016.72 1016.93 1017.25 1017.88 1018.19 1017.76 1016.66 1015.55 1014.51 1014.69 1015.05 1015.43 1015.80 1016.15 1016.63 1017.07 1017.49 1017.86 1018.13 1018.50 1018.91 1019.31 1019.74 1020.11 1020.35 1020.69 1020.95 1021.20 1021.52 1021.89 1022.19 1022.44 1022.69 1022.89 1023.11 1023.23 1023.27 1023.29
1017.27 1017.63 1017.64 1017.40 1017.19 1016.62 1016.96 1016.81 1017.01 1017.42 1017.68 1017.43 1017.08 1015.73 1014.40 1014.46 1014.91 1015.50 1016.09 1016.61 1017.04 1017.54 1017.94 1018.39 1018.70 1019.00 1019.27 1019.61 1019.95 1020.28 1020.53 1020.80 1021.16 1021.43 1021.84 1022.21 1022.51 1022.71 1022.95 1023.23 1023.45 1023.60 1023.67 1023.71
1017.62 1017.72 1018.03 1017.36 1016.90 1016.66 1016.49 1016.36 1016.42 1017.28 1017.35 1017.22 1016.94 1015.38 1014.21 1014.36 1014.82 1015.65 1016.56 1017.14 1017.67 1018.04 1018.54 1018.97 1019.23 1019.54 1019.86 1020.12 1020.34 1020.62 1020.93 1021.23 1021.47 1021.81 1022.19 1022.63 1022.90 1023.16 1023.43 1023.67 1023.84 1023.84 1024.02 1023.95
1018.34 1018.29 1018.22 1017.67 1017.45 1016.86 1016.70 1016.50 1016.40 1016.63 1017.01 1016.96 1016.83 1015.20 1014.56 1014.71 1015.38 1016.00 1016.86 1017.67 1018.20 1018.66 1019.09 1019.54 1019.86 1020.22 1020.51 1020.82 1021.00 1021.25 1021.45 1021.80 1022.06 1022.38 1022.81 1023.24 1023.55 1023.72 1023.93 1024.06 1024.14 1024.15 1024.25 1024.30
1018.54 1018.73 1018.63 1017.93 1017.21 1016.84 1016.88 1016.45 1016.41 1016.77 1017.37 1016.61 1015.63 1014.64 1014.85 1015.24 1015.85 1016.55 1017.15 1017.65 1018.36 1018.95 1019.45 1019.99 1020.50 1020.75 1021.03 1021.30 1021.54 1021.83 1022.20 1022.36 1022.65 1022.92 1023.29 1023.70 1023.91 1024.04 1024.15 1024.18 1024.21 1024.24 1024.24 1024.28
1019.15 1019.15 1018.48 1017.85 1017.31 1016.91 1016.37 1016.12 1016.16 1016.51 1016.09 1015.93 1014.92 1014.55 1014.19 1014.63 1015.47 1016.31 1017.13 1017.81 1018.40 1019.04 1019.64 1020.18 1020.79 1021.25 1021.61 1021.97 1022.13 1022.32 1022.62 1022.81 1022.99 1023.42 1023.75 1023.99 1024.04 1024.10 1024.24 1024.30 1024.35 1024.29 1024.19 1024.16
1019.08 1019.15 1018.73 1018.14 1016.84 1016.30 1015.95 1015.30 1015.33 1015.38 1015.32 1015.02 1014.54 1013.83 1013.41 1013.74 1014.97 1016.12 1016.59 1017.32 1018.14 1018.91 1019.65 1020.32 1020.90 1021.40 1021.86 1022.23 1022.50 1022.73 1023.02 1023.30 1023.38 1023.74 1024.00 1024.03 1024.18 1024.34 1024.43 1024.40 1024.39 1024.33 1024.35 1024.31
1019.18 1019.24 1019.16 1018.25 1016.94 1016.29 1015.52 1013.94 1014.12 1014.24 1013.79 1013.77 1014.00 1013.20 1013.45 1014.12 1014.79 1015.46 1016.23 1016.84 1017.58 1018.35 1019.15 1019.99 1020.76 1021.40 1021.98 1022.43 1022.65 1023.08 1023.31 1023.43 1023.68 1024.03 1024.14 1024.24 1024.33 1024.43 1024.49 1024.51 1024.51 1024.52 1024.47 1024.39
1019.10 1019.45 1019.35 1018.64 1017.53 1016.19 1013.85 1013.37 1013.32 1013.36 1013.13 1013.20 1013.26 1013.40 1013.65 1014.23 1014.88 1015.29 1015.90 1016.49 1017.51 1018.28 1019.22 1020.14 1020.94 1021.64 1022.13 1022.52 1022.87 1023.14 1023.31 1023.60 1023.91 1024.13 1024.27 1024.38 1024.49 1024.66 1024.71 1024.66 1024.65 1024.60 1024.55 1024.49
1019.03 1019.57 1019.81 1019.30 1018.25 1015.77 1013.66 1013.69 1013.62 1013.46 1013.18 1012.99 1013.12 1014.01 1014.47 1015.01 1015.52 1016.03 1016.19 1016.66 1017.39 1018.26 1019.22 1020.09 1020.87 1021.58 1022.19 1022.57 1022.90 1023.23 1023.58 1023.83 1024.04 1024.31 1024.50 1024.62 1024.75 1024.78 1024.73 1024.88 1024.84 1024.57 1024.40 1024.30
1019.44 1019.76 1020.09 1019.67 1018.77 1016.57 1014.51 1013.87 1013.54 1013.46 1013.57 1013.33 1013.37 1014.40 1015.07 1015.54 1016.28 1016.48 1016.33 1016.71 1017.60 1018.28 1019.11 1020.13 1020.92 1021.65 1022.24 1022.83 1023.05 1023.44 1023.80 1023.98 1024.33 1024.55 1024.63 1024.67 1024.80 1024.89 1024.93 1024.78 1024.62 1024.46 1024.34 1024.07
1019.67 1020.05 1020.04 1019.57 1018.67 1016.20 1014.31 1013.97 1013.85 1014.15 1014.48 1013.73 1013.91 1014.63 1015.36 1015.94 1016.20 1016.39 1016.80 1017.44 1017.98 1018.76 1019.59 1020.38 1021.17 1021.96 1022.58 1023.02 1023.37 1023.81 1024.11 1024.44 1024.54 1024.62 1024.82 1024.86 1024.83 1024.75 1024.60 1024.52 1024.33 1024.18 1024.06 1023.80
1018.10 1018.83 1019.14 1018.86 1018.14 1016.32 1014.23 1014.42 1014.42 1014.15 1014.00 1014.14 1014.45 1014.88 1015.59 1016.18 1016.81 1017.25 1017.68 1018.27 1018.83 1019.56 1020.33 1021.03 1021.83 1022.49 1022.93 1023.18 1023.49 1024.00 1024.34 1024.56 1024.61 1024.71 1024.84 1024.91 1024.86 1024.86 1024.61 1024.57 1024.40 1024.14 1023.89 1023.71
1016.76 1016.13 1016.62 1016.66 1015.46 1014.25 1013.85 1013.56 1013.66 1013.88 1014.11 1014.31 1014.72 1015.32 1015.71 1016.50 1017.25 1017.89 1018.69 1019.25 1019.75 1020.23 1020.89 1021.41 1022.01 1022.66 1023.09 1023.46 1023.87 1024.30 1024.46 1024.48 1024.67 1024.84 1024.86 1024.75 1024.70 1024.67 1024.51 1024.47 1024.53 1024.24 1023.71 1023.30
1015.42 1015.04 1015.20 1015.11 1013.96 1013.71 1013.56 1013.49 1013.53 1013.67 1014.05 1014.32 1014.72 1015.39 1015.93 1016.80 1017.64 1018.40 1019.13 1019.87 1020.37 1020.80 1021.36 1021.79 1022.37 1023.02 1023.53 1023.77 1024.04 1024.22 1024.38 1024.46 1024.64 1024.85 1025.01 1024.83 1024.70 1024.34 1024.31 1024.10 1023.98 1023.95 1023.73 1023.24
1014.36 1014.39 1014.14 1013.41 1013.26 1013.29 1013.34 1013.30 1013.34 1013.71 1014.09 1014.56 1014.97 1015.45 1016.15 1016.87 1017.84 1018.55 1019.53 1020.26 1020.64 1021.04 1021.55 1022.07 1022.77 1023.32 1023.71 1023.93 1024.10 1024.20 1024.33 1024.46 1024.64 1024.80 1024.82 1024.76 1024.59 1024.39 1024.22 1023.93 1023.68 1023.58 1023.22 1022.87
1013.50 1013.06 1012.85 1011.85 1012.30 1012.58 1012.86 1012.76 1013.05 1013.82 1014.23 1014.53 1015.08 1015.79 1016.35 1016.81 1017.72 1018.63 1019.67 1020.27 1020.88 1021.38 1021.84 1022.41 1022.89 1023.33 1023.67 1023.91 1024.15 1024.20 1024.10 1024.27 1024.54 1024.54 1024.49 1024.51 1024.33 1024.24 1024.09 1023.78 1023.40 1023.02 1022.56 1022.35
Thickness
5541 5529 5531 5544 5556 5567 5576 5578 5587 5613 5632 5634 5635 5646 5655 5664 5672 5677 5688 5685 5683 5686 5690 5692 5694 5693 5687 5684 5679 5675 5669 5665 5662 5657 5652 5648 5645 5643 5638 5636 5633 5630 5627 5625
5535 5529 5544 5554 5560 5564 5569 5582 5586 5607 5628 5634 5630 5636 5653 5655 5670 5679 5695 5684 5679 5680 5682 5687 5685 5687 5683 5679 5675 5670 5665 5660 5656 5652 5648 5645 5641 5637 5633 5629 5626 5622 5619 5616
5535 5545 5557 5559 5563 5570 5577 5584 5586 5595 5614 5622 5626 5625 5641 5654 5665 5675 5686 5696 5695 5686 5681 5684 5681 5683 5679 5674 5669 5664 5660 5655 5650 5645 5641 5637 5635 5630 5624 5620 5617 5614 5610 5607
5543 5556 5556 5561 5562 5566 5566 5580 5588 5596 5592 5588 5617 5592 5627 5647 5655 5669 5679 5683 5684 5680 5680 5675 5674 5674 5671 5668 5664 5659 5653 5648 5643 5639 5635 5631 5628 5622 5619 5614 5609 5606 5602 5598
5538 5545 5552 5557 5558 5564 5569 5581 5587 5600 5593 5594 5607 5586 5624 5645 5648 5660 5671 5676 5675 5678 5680 5675 5671 5669 5666 5660 5656 5650 5644 5640 5635 5632 5627 5623 5619 5615 5611 5605 5600 5596 5592 5588
5546 5551 5551 5555 5562 5566 5572 5579 5580 5577 5572 5557 5596 5587 5607 5631 5658 5663 5670 5669 5670 5671 5671 5668 5663 5659 5653 5650 5645 5639 5634 5630 5627 5623 5619 5615 5610 5605 5599 5594 5589 5584 5581 5577
5544 5547 5551 5554 5556 5564 5566 5552 5527 5540 5534 5552 5584 5573 5616 5646 5648 5666 5668 5661 5662 5664 5663 5658 5653 5647 5641 5639 5633 5628 5625 5619 5616 5613 5609 5605 5600 5595 5589 5585 5580 5574 5570 5566
5521 5521 5548 5553 5553 5554 5558 5552 5530 5548 5541 5560 5584 5578 5608 5632 5636 5647 5651 5650 5651 5648 5648 5646 5642 5636 5633 5629 5623 5619 5614 5609 5605 5601 5597 5593 5589 5584 5580 5575 5570 5564 5559 5554
5531 5540 5547 5550 5551 5552 5560 5551 5563 5556 5559 5555 5568 5596 5617 5625 5625 5630 5636 5639 5637 5635 5634 5632 5628 5626 5623 5617 5613 5608 5602 5599 5594 5590 5586 5582 5577 5573 5568 5563 5558 5552 5547 5542
5546 5532 5547 5547 5551 5553 5553 5555 5546 5529 5559 5568 5567 5595 5592 5611 5616 5619 5623 5627 5626 5625 5622 5620 5619 5615 5611 5607 5603 5598 5594 5590 5586 5581 5576 5570 5565 5560 5555 5549 5543 5538 5532 5527
5551 5541 5541 5548 5544 5548 5545 5549 5558 5556 5552 5559 5560 5573 5601 5609 5613 5614 5614 5615 5612 5611 5608 5605 5603 5601 5598 5594 5591 5587 5584 5579 5574 5569 5562 5556 5551 5546 5540 5533 5527 5521 5515 5510
5552 5543 5532 5543 5553 5555 5557 5559 5560 5544 5568 5561 5561 5574 5610 5615 5611 5610 5603 5602 5599 5598 5593 5591 5589 5586 5584 5581 5578 5574 5569 5564 5560 5554 5548 5541 5535 5528 5522 5515 5509 5504 5499 5494
5546 5541 5514 5541 5544 5552 5553 5559 5566 5560 5549 5560 5562 5580 5597 5604 5599 5597 5591 5586 5583 5582 5579 5575 5573 5570 5568 5564 5560 5557 5553 5548 5543 5536 5529 5522 5516 5510 5504 5499 5493 5488 5482 5476
5543 5537 5542 5539 5552 5553 5551 5558 5561 5559 5524 5562 5568 5592 5589 5589 5589 5583 5579 5576 5573 5571 5569 5563 5558 5555 5552 5549 5545 5541 5535 5530 5525 5519 5513 5505 5499 5494 5489 5484 5478 5472 5466 5459
5538 5533 5544 5544 5549 5555 5558 5561 5560 5545 5564 5566 5586 5588 5598 5587 5583 5578 5573 5568 5566 5562 5558 5552 5545 5540 5536 5532 5528 5524 5520 5515 5510 5503 5496 5490 5485 5479 5473 5467 5460 5455 5449 5444
5536 5533 5547 5539 5556 5549 5558 5562 5561 5563 5570 5572 5577 5589 5595 5593 5580 5573 5571 5567 5561 5554 5548 5542 5536 5529 5523 5518 5514 5510 5504 5498 5493 5487 5480 5475 5468 5462 5455 5450 5444 5438 5432 5425
5538 5531 5530 5543 5559 5560 5559 5572 5569 5572 5578 5583 5577 5592 5588 5589 5583 5576 5566 5566 5559 5551 5544 5535 5527 5517 5510 5506 5501 5494 5488 5483 5476 5469 5463 5457 5451 5445 5438 5432 5427 5420 5414 5408
5538 5536 5533 5532 5548 5546 5579 5581 5582 5577 5584 5582 5586 5586 5582 5577 5570 5569 5563 5558 5548 5541 5532 5521 5511 5503 5497 5490 5484 5479 5473 5466 5460 5453 5446 5440 5434 5427 5421 5416 5410 5403 5398 5391
5530 5525 5521 5530 5528 5559 5582 5572 5573 5576 5578 5579 5578 5565 5560 5556 5553 5551 5549 5545 5535 5527 5517 5507 5498 5490 5481 5476 5470 5465 5456 5450 5443 5436 5429 5423 5416 5410 5405 5398 5391 5387 5382 5375
5518 5509 5510 5506 5527 5541 5567 5565 5566 5569 5563 5563 5568 5552 5545 5546 5540 5533 5541 5531 5522 5515 5507 5495 5485 5476 5468 5460 5454 5447 5439 5433 5425 5418 5412 5406 5400 5394 5387 5382 5376 5371 5365 5359
5499 5493 5494 5488 5496 5530 5556 5554 5554 5552 5555 5556 5557 5543 5535 5535 5531 5525 5518 5512 5507 5498 5489 5479 5470 5460 5449 5442 5436 5427 5420 5413 5407 5400 5393 5388 5382 5377 5372 5367 5361 5355 5348 5342
5516 5491 5490 5486 5491 5503 5541 5540 5543 5542 5538 5540 5537 5530 5520 5512 5508 5503 5500 5493 5487 5477 5467 5459 5448 5438 5432 5426 5419 5410 5403 5396 5390 5383 5377 5370 5364 5358 5355 5348 5342 5336 5330 5324
5518 5529 5514 5513 5519 5534 5526 5534 5531 5524 5525 5527 5521 5511 5508 5501 5494 5487 5476 5469 5462 5455 5447 5439 5431 5423 5415 5407 5400 5392 5386 5381 5374 5367 5362 5356 5350 5343 5338 5331 5324 5317 5312 5305
5522 5520 5518 5523 5536 5525 5524 5524 5523 5521 5515 5512 5506 5497 5493 5486 5477 5468 5457 5448 5440 5434 5427 5422 5414 5404 5395 5389 5383 5377 5371 5365 5358 5351 5344 5339 5334 5330 5323 5316 5308 5300 5292 5285
5511 5509 5513 5514 5523 5520 5515 5511 5510 5506 5501 5497 5491 5486 5477 5469 5459 5451 5439 5430 5424 5419 5412 5404 5394 5386 5379 5372 5366 5360 5354 5348 5341 5334 5328 5323 5318 5312 5305 5299 5292 5284 5277 5270
5502 5511 5506 5522 5514 5507 5506 5507 5499 5491 5485 5481 5476 5468 5462 5458 5447 5436 5423 5417 5410 5402 5394 5385 5377 5370 5363 5356 5350 5344 5341 5334 5326 5320 5315 5308 5303 5295 5289 5283 5278 5270 5265 5257